Wind_Speed
25 24 24 24 24 23 23 23 22 21 21 22 24 25 24 22 20 18 16 14 14 14 14 15 15 16 14 12 11 9 7 7 7 7 7 7 6 6 6 5 5 4
24 24 24 24 24 23 23 23 22 21 21 21 23 23 22 21 20 18 16 15 15 15 15 15 16 16 15 13 12 10 8 8 8 8 8 7 7 7 7 6 6 6
24 24 25 25 25 24 23 22 21 21 20 20 21 21 21 21 19 17 16 15 15 16 16 16 16 16 15 14 12 10 10 10 10 9 9 7 7 7 7 7 7 7
24 25 25 25 25 24 22 22 20 20 20 20 20 21 21 20 18 17 16 16 16 16 17 17 17 16 14 14 13 11 11 11 11 10 10 8 8 8 8 8 8 8
25 25 25 25 25 24 22 22 21 20 20 21 21 21 21 20 18 17 18 17 17 17 18 18 18 17 15 15 14 12 11 11 12 12 11 10 9 8 8 8 8 8
25 25 25 25 24 23 22 22 21 20 21 22 22 21 21 20 19 18 19 18 18 18 19 20 20 18 17 16 14 13 12 12 13 13 12 11 10 9 9 9 9 10
25 25 25 25 23 23 22 21 20 20 21 22 22 22 22 21 20 19 19 19 18 18 19 21 22 21 19 18 16 15 13 13 14 14 14 13 12 11 11 11 11 11
24 25 25 24 23 22 22 21 19 19 19 21 21 22 23 22 21 20 19 19 18 18 19 20 22 22 21 19 18 17 15 15 15 15 15 15 14 13 13 13 13 13
23 24 25 25 23 22 22 21 20 18 17 19 21 22 23 23 21 20 19 19 19 19 19 19 20 21 21 20 19 18 17 16 16 17 16 16 15 15 15 14 14 14
23 23 24 24 24 23 22 22 22 20 17 18 20 22 23 22 21 21 20 20 20 19 19 18 19 20 20 20 19 19 18 18 18 18 18 17 17 17 17 16 16 15
23 23 23 23 24 23 23 22 22 22 19 18 19 21 22 22 21 22 22 22 22 22 21 20 19 19 20 20 20 20 20 20 19 19 19 19 19 18 18 18 18 17
23 23 23 23 23 24 23 23 23 22 21 20 20 21 22 22 23 23 23 23 23 23 22 22 21 20 20 20 20 21 21 21 21 21 21 21 20 20 19 18 18 18
23 23 22 22 22 23 23 23 23 23 22 21 21 22 24 24 24 24 24 24 23 22 22 23 23 22 22 21 21 21 22 22 23 23 23 22 22 21 20 19 19 19
23 23 22 21 20 20 21 22 23 23 23 22 21 22 24 25 25 24 24 23 23 23 22 22 23 24 24 23 23 22 23 23 23 24 24 23 23 23 22 21 20 20
22 22 21 20 20 19 20 21 22 22 22 22 22 23 24 25 24 23 23 23 24 24 24 24 25 26 26 25 25 24 24 24 24 25 25 25 24 24 24 23 22 22
22 22 21 21 21 21 21 21 22 22 22 22 22 23 24 24 23 23 23 24 24 25 25 25 26 26 27 26 26 25 25 25 26 26 26 26 25 25 25 25 24 23
20 20 20 21 21 21 22 22 22 23 23 24 24 24 25 25 24 24 24 25 25 25 26 26 27 28 27 27 27 27 27 27 27 27 27 26 26 25 25 25 25 25
20 21 21 21 21 21 21 21 22 22 23 24 25 26 26 26 26 26 26 26 26 26 27 27 28 29 29 29 29 28 28 28 28 28 28 27 26 26 26 26 26 26
24 25 24 23 22 22 21 21 21 21 22 24 25 26 26 27 27 28 28 28 27 27 28 29 29 29 29 30 30 30 29 29 29 29 29 29 27 26 26 26 26 26
26 26 25 25 24 23 23 23 23 23 24 24 23 24 25 26 27 28 29 29 29 29 29 30 30 30 30 31 31 31 31 30 31 31 31 30 29 28 27 27 26 26
24 24 24 26 26 26 26 26 26 26 26 26 25 24 24 25 26 27 29 30 31 31 31 31 32 32 32 32 32 32 31 31 32 32 32 32 31 30 29 28 27 26
19 20 21 22 23 25 26 26 26 26 27 27 26 25 24 25 25 26 28 29 30 31 31 32 34 34 33 33 32 32 32 33 33 33 33 33 34 33 32 30 29 27
17 18 19 19 21 22 24 25 25 25 25 25 26 26 26 25 26 26 26 27 29 29 30 32 33 33 33 33 33 32 32 33 34 34 34 34 34 34 34 32 31 29
17 18 18 19 20 21 23 25 25 26 26 25 25 27 28 28 28 27 25 25 27 28 29 30 32 32 32 32 33 34 34 34 35 34 34 34 33 33 33 33 31 29
14 15 16 17 18 19 20 21 22 23 24 24 25 26 28 29 29 28 28 27 28 29 29 30 31 32 32 32 33 33 34 35 35 34 33 33 33 33 33 32 31 29
10 11 13 14 16 17 18 18 19 20 21 22 23 24 25 27 28 29 30 31 31 31 32 32 33 33 32 32 32 32 33 33 34 33 33 33 32 32 32 32 32 31
Wind_Direction
213 215 216 215 216 216 216 217 218 217 216 216 214 213 213 212 213 216 219 219 220 222 219 216 217 218 217 215 213 213 220 230 237 245 252 250 248 247 246 241 228 216
212 215 217 217 216 216 216 217 220 222 221 220 216 214 213 213 215 219 222 223 223 224 221 220 220 219 219 219 218 219 227 235 240 246 253 253 253 256 256 252 244 238
213 214 216 217 217 216 216 218 222 226 224 220 217 214 213 213 216 220 222 223 224 224 223 222 222 221 221 221 221 224 232 240 244 247 252 254 258 261 260 257 252 248
213 215 215 217 219 217 217 220 224 226 223 218 215 212 211 213 217 219 218 220 224 225 224 223 222 223 223 222 223 227 236 242 244 246 249 253 258 263 263 261 259 253
214 215 215 217 219 218 220 222 224 224 222 219 216 213 212 215 218 218 217 220 223 224 224 222 222 223 224 225 226 230 238 242 242 244 247 250 257 265 268 264 260 257
213 213 214 217 218 217 218 222 224 225 223 222 220 218 217 217 219 220 219 221 221 220 220 221 223 224 225 226 228 232 239 243 243 244 247 252 258 265 269 265 261 261
211 211 211 214 217 216 217 221 227 228 225 224 224 223 221 220 223 224 223 223 221 219 219 220 223 225 226 227 229 233 238 243 245 246 250 255 258 262 264 262 262 263
211 210 209 211 214 217 219 223 228 229 226 226 227 225 222 223 227 229 227 224 222 221 220 222 223 224 225 227 230 233 238 242 244 246 250 253 255 257 258 257 260 262
210 210 208 209 212 217 221 225 229 231 229 229 229 226 225 227 230 229 226 224 223 224 224 225 225 224 225 228 230 234 238 242 243 244 247 249 251 254 254 253 256 259
209 210 209 209 212 217 221 225 230 233 233 232 231 229 229 230 230 228 227 228 229 230 231 230 229 228 229 232 234 237 241 244 244 243 244 246 250 253 254 253 253 256
208 210 211 212 214 218 221 225 229 233 235 235 233 232 232 232 231 230 230 232 233 236 238 237 236 234 234 236 238 241 245 247 247 245 245 247 251 255 256 255 254 254
208 210 213 216 218 221 224 226 228 232 235 236 234 233 233 233 233 233 234 235 236 239 241 241 241 240 239 240 241 245 247 248 247 246 246 249 252 256 258 258 256 255
209 211 214 218 221 224 227 228 229 232 235 238 238 236 235 235 236 238 238 239 240 243 245 245 245 245 244 243 243 246 248 247 246 246 247 250 254 258 261 260 259 258
213 213 214 218 222 225 228 230 231 232 235 239 242 241 240 240 241 242 242 242 244 248 251 252 251 249 247 245 244 246 247 246 246 246 248 252 256 260 262 263 262 261
219 217 216 217 220 223 227 229 231 233 235 238 242 244 245 246 248 248 247 247 248 251 254 255 254 252 251 249 247 247 247 248 248 249 250 253 256 261 264 265 265 266
225 224 223 222 222 225 227 229 230 232 233 236 239 243 246 248 251 251 251 252 252 253 255 255 254 254 254 253 252 252 252 252 251 251 252 253 256 259 263 266 269 270
226 227 228 228 229 230 232 233 234 234 234 236 239 242 246 248 250 252 253 255 255 256 256 256 255 255 256 256 256 256 255 254 254 254 254 254 255 258 262 267 270 272
223 225 225 226 228 230 232 235 237 238 239 240 241 244 247 249 250 253 255 257 257 258 258 259 259 258 258 258 258 258 257 255 254 255 255 255 257 259 262 267 270 273
224 225 223 224 226 228 232 235 237 239 241 242 244 246 247 249 250 252 255 257 259 259 260 262 263 262 261 260 259 259 258 255 253 254 255 256 258 260 263 266 269 272
230 230 228 229 230 231 233 235 236 239 241 242 244 246 246 248 249 250 253 255 258 260 261 263 263 263 263 262 262 262 259 255 252 252 253 254 257 259 261 263 265 267
230 233 234 235 235 235 236 237 237 240 242 242 243 244 246 248 249 250 251 253 255 257 258 260 262 263 262 262 263 263 260 256 253 251 251 253 255 257 258 259 260 261
230 235 237 237 237 239 240 240 241 242 243 243 243 243 245 248 249 250 251 252 253 254 254 255 259 261 261 261 263 263 260 255 253 251 250 251 253 255 256 256 256 256
233 236 239 239 238 237 239 241 243 245 246 245 243 243 244 245 247 250 252 253 253 253 252 253 256 258 260 261 262 261 257 253 250 249 249 249 252 254 255 255 255 255
238 237 239 242 241 239 239 242 245 247 248 246 244 244 245 246 247 251 254 256 255 254 253 253 254 257 259 259 260 259 255 251 248 246 245 246 249 251 253 254 255 255
247 244 243 243 243 243 243 244 245 247 249 249 247 246 246 247 248 250 253 256 255 255 254 253 254 257 257 256 257 257 254 251 247 243 240 242 245 247 250 251 253 252
254 256 255 253 252 253 252 251 250 249 250 250 249 247 246 247 248 249 250 252 253 252 252 252 253 256 256 255 255 254 254 252 246 240 238 240 242 244 246 247 250 251
Height
805 806 808 809 811 812 813 814 815 817 818 819 820 822 824 825 827 828 830 831 832 833 834 836 837 838 839 840 841 842 843 844 845 846 846 847 847 848 848 849 849 849
804 806 807 809 810 811 812 813 815 816 817 818 820 821 823 825 826 828 829 830 831 832 834 835 836 837 838 839 840 841 842 843 844 845 846 846 847 847 848 848 848 848
803 805 806 808 809 810 811 813 814 815 816 818 819 821 823 824 826 826 828 829 830 831 833 834 835 836 837 838 839 840 841 843 844 844 845 845 846 846 847 847 847 848
802 804 805 807 808 810 811 812 814 815 816 817 818 820 822 823 825 825 827 828 829 830 831 833 834 835 837 838 838 840 841 842 843 843 844 844 845 845 846 846 846 847
801 803 804 806 807 809 811 811 813 814 815 816 817 819 821 822 824 824 826 827 828 829 830 831 833 834 835 837 837 839 840 841 842 842 843 843 844 844 845 845 845 846
800 802 803 805 806 808 810 810 812 813 814 816 817 819 820 821 823 824 825 826 827 828 829 830 832 833 834 836 836 838 838 839 840 841 841 842 842 843 844 844 844 845
799 801 802 804 806 807 809 810 811 813 814 816 817 818 820 821 822 823 824 825 826 826 827 828 830 831 833 834 835 836 837 838 839 839 840 840 841 842 842 843 843 843
797 800 801 803 805 806 808 809 810 812 813 815 816 817 819 820 821 822 823 824 825 826 827 827 829 830 831 833 833 834 835 836 837 837 838 839 839 840 841 841 842 842
796 798 800 802 804 805 807 808 809 811 812 814 815 816 818 819 820 822 823 823 824 825 826 826 828 829 830 831 832 832 833 834 835 835 836 837 838 838 839 840 840 840
795 797 799 800 802 804 805 807 808 810 811 812 814 815 816 818 819 820 822 822 823 824 824 825 826 827 828 829 830 831 831 832 833 834 834 835 836 836 837 838 838 838
794 795 797 798 800 802 804 805 807 809 810 811 812 814 815 816 818 819 820 821 822 822 823 824 825 826 827 827 828 829 830 830 831 832 832 833 834 834 835 835 836 836
792 793 795 796 798 800 802 804 805 807 808 810 811 812 813 815 816 817 818 819 820 821 822 822 823 824 825 825 826 827 828 828 829 830 830 831 831 832 832 833 833 834
790 791 793 794 796 798 800 802 803 805 806 808 809 810 812 813 814 815 816 817 818 819 820 821 821 822 823 823 824 825 825 826 827 827 828 829 829 830 830 831 831 831
788 789 791 792 794 796 798 799 801 803 804 806 808 809 810 811 812 813 814 815 816 817 818 819 819 820 820 821 821 822 823 823 824 825 826 826 827 827 828 828 829 829
786 788 789 791 792 794 796 798 799 801 802 804 805 806 807 808 810 811 812 813 814 815 816 816 817 817 818 818 819 820 820 821 822 822 823 824 824 825 825 826 826 827
785 786 787 789 790 791 793 795 797 799 800 802 803 804 805 806 808 809 809 810 811 812 813 814 814 815 815 816 817 818 818 819 819 820 820 821 822 822 823 823 824 825
783 784 785 786 787 789 790 792 794 796 798 799 800 801 802 804 805 806 807 808 808 809 810 811 811 812 813 814 814 815 816 816 817 817 818 818 819 819 820 821 821 822
780 780 782 783 784 786 787 789 791 793 794 796 797 798 799 800 802 803 803 805 806 806 807 807 808 809 810 811 811 812 813 813 814 814 815 815 816 816 817 818 819 820
775 776 778 780 782 784 785 787 788 790 791 792 793 795 796 797 798 799 800 801 802 803 804 804 805 805 806 808 808 809 810 810 811 811 812 812 813 814 815 815 816 817
772 774 776 778 779 781 783 784 785 787 788 789 791 792 793 794 795 796 797 798 799 799 800 801 801 802 803 804 805 806 807 807 808 808 809 809 810 811 812 812 813 814
770 772 774 775 777 778 779 780 782 783 785 786 788 789 790 791 792 793 794 794 795 796 797 797 798 799 800 801 802 803 804 804 805 805 806 806 807 808 808 809 810 810
770 771 772 773 774 775 776 777 778 779 781 783 784 785 786 788 789 790 790 791 792 793 794 794 794 795 797 797 798 799 800 801 802 802 803 803 803 804 805 806 807 807
770 770 770 771 772 773 774 774 775 776 778 780 781 782 782 784 785 786 787 788 789 790 790 790 790 792 793 794 795 796 797 798 798 799 799 800 800 801 802 802 803 804
768 768 769 769 770 771 771 772 773 774 775 776 778 778 779 780 781 782 783 784 785 786 786 787 787 788 789 790 791 792 793 794 794 795 796 796 797 798 798 799 800 801
767 767 767 767 768 768 769 770 771 771 772 774 775 775 776 776 777 778 779 779 780 781 782 782 782 783 784 786 787 788 789 790 791 791 792 792 793 794 795 796 797 798
765 766 766 766 766 767 767 768 769 769 770 771 771 772 772 773 773 774 774 774 775 776 777 778 778 778 780 781 782 784 785 786 787 787 788 788 789 790 791 792 793 794